Flag for Germany Weather past 2 weeks in Buchholz in der Nordheide, Lower Saxony, Germany

Now
64 °F

Fog.


Feels Like: 64 °F
Forecast: 54 / 69 °F
Wind: 2 mph from North

Location: Hamburg-Finkenwerder

Current Time: Oct 2, 2014 at 2:33:14 PM

Latest Report: Oct 2, 2014 at 1:50 PM


Visibility: 2 mi

Pressure: 30.36 "Hg

Humidity: 94%

Dew point: 63 °F

Location of Buchholz in der NordheideLocation

Historic Weather in Buchholz in der Nordheide — Graph

°F

Buchholz in der Nordheide temperature yesterday

Maximum temperature yesterday: 68 °F (at 2:50 PM)
Minimum temperature yesterday: 54 °F (at 5:50 AM)
Average temperature yesterday: 62 °F

Past Weeks' High & Low Weather Summary

 TemperatureHumidityPressure
High75 °F (Sep 17, 4:50 PM)100% (Sep 25, 5:50 AM)30.39 "Hg (Sep 25, 5:50 AM)
Low41 °F (Sep 23, 7:20 AM)48% (Sep 22, 12:20 PM)29.74 "Hg (Sep 24, 4:50 PM)
Average61 °F78%30.05 "Hg
* Reported Sep 17 1:20 PM — Oct 2 1:20 PM, Buchholz in der Nordheide, Weather by CustomWeather, © 2014

Note: Actual official high and low records may vary slightly from our data, if they occured in-between our weather recording intervals... More about our weather records

Advertising

Buchholz in der Nordheide weather history for previous 24 hours

 ConditionsComfort  
Time TempWeatherWind HumidityBarometerVisibility
1:20 PM
Oct 2
63 °FFog.2 mph100%30.36 "Hg2 mi
12:50 PM63 °FFog.3 mph100%30.39 "Hg1 mi
12:20 PM61 °FFog.2 mph100%30.39 "Hg1 mi
11:50 AM61 °FFog.3 mph100%30.39 "Hg1 mi
11:20 AM61 °FFog.2 mph100%30.39 "Hg1 mi
10:50 AM59 °FFog.3 mph100%30.39 "Hg1 mi
10:20 AM59 °FFog.2 mph100%30.39 "Hg1 mi
9:50 AM59 °FFog.2 mph100%30.36 "Hg2 mi
9:20 AM57 °FFog.5 mph100%30.36 "Hg1 mi
8:50 AM57 °FFog.2 mph100%30.36 "Hg1 mi
8:20 AM57 °FFog.2 mph100%30.36 "Hg1 mi
7:50 AM57 °FFog.3 mph100%30.36 "Hg1 mi
7:20 AM57 °FFog.5 mph100%30.36 "Hg1 mi
6:50 AM57 °FFog.3 mph100%30.33 "Hg1 mi
6:20 AM57 °FFog.3 mph100%30.33 "Hg1 mi
5:50 AM57 °FFog.5 mph100%30.33 "Hg1 mi
8:20 PM
Oct 1
63 °FPartly cloudy.2 mph88%30.30 "HgN/A
7:50 PM64 °FBroken clouds.1 mph88%30.30 "HgN/A
7:20 PM64 °FScattered clouds.1 mph83%30.30 "HgN/A
6:50 PM64 °FBroken clouds.2 mph83%30.27 "HgN/A
6:20 PM66 °FBroken clouds.3 mph78%30.27 "Hg5 mi
5:50 PM68 °FBroken clouds.5 mph73%30.27 "HgN/A
5:20 PM68 °FBroken clouds.6 mph69%30.27 "HgN/A
4:50 PM68 °FBroken clouds.8 mph69%30.27 "HgN/A
4:20 PM68 °FBroken clouds.7 mph73%30.27 "HgN/A
3:50 PM68 °FPartly sunny.8 mph69%30.27 "HgN/A
3:20 PM68 °FPartly sunny.13 mph69%30.27 "HgN/A
2:50 PM68 °FBroken clouds.8 mph69%30.27 "HgN/A
2:20 PM66 °FBroken clouds.8 mph78%30.27 "HgN/A
Weather by CustomWeather, © 2014

See weather overviewHow to use our weather pages